PEGASUS DEB, 27679

Orbit data source: Space-Track

PEGASUS DEB, 27679 is space debris in LEO originally from a launch on Thu, 19 May 1994 UTC launched from the Air Force Western Test Range (AFWTR). Debris objects in space refer to the collection of defunct objects orbiting the Earth. Examples of debris include non-operational satellites, rocket bodies, and fragments generated from explosions, collisions, or faulty payload assembly.

Loading next visibility...
Identifier
27679, 1994-029AEJ
Orbit
LEO
Country
Flag of USUS
Related business
Manufacturer
Unknown
Mission
Spacecraft
Bus & Motor
Unknown
Mass
Unknown
Launch date (UTC)
1994-05-19 (32 years ago)
Launch vehicle
Unknown
Launch site
Air Force Western Test Range (AFWTR)
Object type
Payload
Rocket body
Debris
Shape & HBR
Unknown shape, 0.1 m
Radar Cross Section
Small (<0.1 m²)

Expand to show TLE details & history
Last TLE update: 3 days ago

TLE from 3 days ago
0 PEGASUS DEB
1 27679U 94029AEJ 26170.29366794  .00001122  00000-0  24481-3 0  9995
2 27679  81.9772  19.3953 0293582 229.2566 128.2799 14.33744576266857
Epoch: 2026-06-19T07:02Z
TLE epoch observation values (Epoch: 2026-06-19T07:02:52.910Z)
Latitude
-0.00001°
Longitude
6.15012°
Altitude
916.096 km
Speed
7.324 km/s
True Right ascension
01h 17m 34s
True Declination
0° 00' 00"
Sunlit
Object was in daylight at epoch
Visualization orbit readout
Latitude
Unknown
Longitude
Unknown
Altitude
Unknown
Speed
Unknown
Apparent Right ascension
Unknown
Apparent Declination
Unknown
Sunlit
N/A
Visualization observer readout
Local Sidereal Time
02:17:36
Azimuth
Unknown
Elevation
Unknown
Doppler factor
Unknown
Orbital elements
Apogee altitude
986.389 km
Perigee altitude
566.303 km
Semi-major axis
7,154.483 km
Eccentricity
0.02936
Inclination
81.9772°
RAAN
19.3953°
Arg. of periapsis
229.2566°
True anomaly
130.86115°
Mean anomaly
128.2799°
Eccentric anomaly
129.57642°
Mean motion
3.58654 °/min
Orbital period
100.38 mins
BSTAR
0.00024481
Loading maneuver chart data...
Computing Atmospheric mass density...

Documentation

Showing up to 5 results
|